Regional Weather Roundup
Issued by NWS Wilmington, NC

Home | Current Version | Previous Version | Text Only | Print | Product List | Glossary On
Versions: 1 2 3 4 5 6 7 8 9 10 11 12 13 14 15 16 17 18 19 20 21 22 23 24 25 26 27 28 29 30 31 32 33 34 35 36 37 38 39 40 41 42 43 44 45 46 47 48 49 50
197
ASUS42 KILM 120913
RWRILM
RWRILM
REGIONAL HOURLY WEATHER ROUNDUP
NATIONAL WEATHER SERVICE WILMINGTON NC
400 AM EST FRI FEB 12 2016

NOTE: "FAIR" INDICATES FEW OR NO CLOUDS BELOW 12,000 FEET WITH NO
SIGNIFICANT WEATHER AND/OR OBSTRUCTIONS TO VISIBILITY.

...............WFO WILMINGTON COUNTY WARNING AREA...............

......COASTAL NC AND SC COUNTIES......

CITY           SKY/WX    TMP DP  RH WIND       PRES   REMARKS
WILMINGTON     CLOUDY    34  22  61 NE10      30.25S WCI  26
N MYRTLE BEACH CLOUDY    41  33  73 NE7       30.21S
MYRTLE BEACH   CLOUDY    48  32  53 E12       30.23S

......INLAND NC AND SC COUNTIES.......

CITY           SKY/WX    TMP DP  RH WIND       PRES   REMARKS
LUMBERTON      CLEAR     32  19  58 NE9       30.24F WCI  24
ELIZABETHTOWN  MOCLDY    30  20  67 CALM      30.26S
WHITEVILLE     MOCLDY    33  22  66 NE6       30.23F WCI  27
FLORENCE       CLEAR     32  28  85 NE8       30.21F WCI  25
DARLINGTON     CLEAR     30  21  69 NE7       30.22F WCI  23
KINGSTREE      CLOUDY    39  32  75 E3        30.19F
HARTSVILLE     FAIR      32  27  80 NE9       30.19F WCI  24
BENNETTSVILLE  FAIR      34  25  69 NE8       30.22F WCI  27
CONWAY         CLOUDY    39  34  81 NE6       30.21F WCI  35
GEORGETOWN     CLOUDY    46  34  61 E3        30.20S
MARION         MOCLDY    36  30  80 NE7       30.22F WCI  30

....................REST OF NORTH CAROLINA......................

.........EASTERN NC.........

CITY           SKY/WX    TMP DP  RH WIND       PRES   REMARKS
CAPE HATTERAS  CLEAR     34  12  40 NE5       30.30F WCI  30
JACKSONVILLE   CLEAR     27  16  63 NE8       30.27F WCI  18
MOREHEAD CITY  MOCLDY    31  19  61 NE7       30.28F WCI  24
KENANSVILLE    CLEAR     27  16  62 CALM      30.29F
NEW BERN       CLEAR     27  14  58 NE6       30.31S WCI  20
ELIZABETH CITY CLOUDY    27  14  58 N10       30.33S WCI  17

.........CENTRAL NC.........

CITY           SKY/WX    TMP DP  RH WIND       PRES   REMARKS
RALEIGH DURHAM MOCLDY    28   5  37 E10       30.29F WCI  19
ROCKY MOUNT    CLOUDY    27   8  44 NE6       30.32S WCI  20
ROANOKE RAPIDS NOT AVBL
FAYETTEVILLE   CLEAR     28  11  48 NE8       30.26F WCI  20
HOFFMAN        CLEAR     29  10  45 NE8       30.24F WCI  21

.........WESTERN NC.........

CITY           SKY/WX    TMP DP  RH WIND       PRES   REMARKS
CHARLOTTE      MOCLDY    31   6  35 E7        30.22F WCI  24
GREENSBORO     CLOUDY    26   5  40 E8        30.24R WCI  18
HICKORY        NOT AVBL
BOONE          NOT AVBL
ASHEVILLE      NOT AVBL

.....................REST OF SOUTH CAROLINA.....................

.........EASTERN SC.........

CITY           SKY/WX    TMP DP  RH WIND       PRES   REMARKS
CHARLESTON     MOCLDY    46  38  73 NE6       30.16F
BEAUFORT MCAS  CLEAR     43  40  89 CALM      30.16F
HILTON HEAD    PTCLDY    45  45 100 S3        30.16F

.........CENTRAL SC.........

CITY           SKY/WX    TMP DP  RH WIND       PRES   REMARKS
COLUMBIA       MOCLDY    35  29  78 CALM      30.17F
ORANGEBURG     CLOUDY    44  35  70 NE3       30.17S
SUMTER SHAW    CLOUDY    34  28  80 NE6       30.17S WCI  29

.........WESTERN SC.........

CITY           SKY/WX    TMP DP  RH WIND       PRES   REMARKS
GREENVILLE     NOT AVBL
ROCK HILL      CLEAR     30  14  51 VRB3      30.21F
ANDERSON       CLEAR     34  20  56 NE7       30.16F WCI  28
CLEMSON        NOT AVBL
GREENWOOD      CLEAR     31  24  75 N6        30.17F WCI  25


...................COASTAL AND OFFSHORE REPORTS..................

................LOCAL PIERS AND NC RESERVE................


STATION/POSITION TIME  SKY/WX   TEMP    WIND        PRES    VSBY
                                AIR SEA DIR/SP/G
                 (UTC)          (F)     (DEG/KT/KT) (MB)    (MI)
JOHNY MRCER PIER 0800            39 52   20/ 11/ 13 1023.1F
NC RESRV MASNBRO NOT AVBL
OCEAN CREST PIER NOT AVBL
SPRINGMAID  PIER 0800            48 48   60/ 12/ 13 1022.6F


................COASTAL AND OFFSHORE BUOYS................


STATION/POSITION TIME  SKY/WX   TEMP    WIND        PRES    VSBY
                                AIR SEA DIR/SP/G
                 (UTC)          (F)     (DEG/KT/KT) (MB)    (MI)
DIMNDSHOAL 41025 0850            40 70   10/ 10/ 14 1025.8F
WVE H/P(F/S)=  3/ 8 SWL H/P/D(F/S/D)=  2/ 70/ 8

CAPE LOOKOUT     NOT AVBL
ONSLOW BAY 41036 NOT AVBL
ONSLOW BAY 41064 0808            46 59              1024.3F
ONSLOW BAY 41159 0855               59                N/A
WVE H/P(F/S)=  2/ 7

5SE WRITBC 41038 0808            46 50   60/ 10/ 12 1024.4F
MASNBO INL 41110 0806               50                N/A
WVE H/P(F/S)=  1/ 6

WILM HARBR 41108 0856               50                N/A
WVE H/P(F/S)=  2/ 6

27SE WRITB 41037 0808            48 62   80/  8/ 12 1022.3F
FRYING PAN 41013 0900            51 57   60/ 10/ 12 1023.4R
SUNST NRSH 41024 NOT AVBL
CAPRS NRSH 41029 0808            50      60/ 12/ 16 1021.6F
EDISTO     41004 0850            61 69  220/  8/ 16 1021.1F
WVE H/P(F/S)=  1/ 4 SWL H/P/D(F/S/D)=  2/ 4



..........OFFSHORE BUOYS BEYOND 100 NM OFFSHORE...........
.....IN A TRIANGLE---HAT TO BERMUDA TO BAHAMAS TO HAT.....


STATION/POSITION TIME  SKY/WX   TEMP    WIND        PRES    VSBY
                                AIR SEA DIR/SP/G
                 (UTC)          (F)     (DEG/KT/KT) (MB)    (MI)
150E HAT   41001 0800            48 69  300/ 17/ 25 1025.0R
W BERMUDA  41048 0850            60 69  300/ 19/ 25 1023.2R
WVE H/P(F/S)= 12/10 SWL H/P/D(F/S/D)=  7/300/10

ATLANTIC S 41049 0850            71 74  320/ 12/ 14 1022.4R
WVE H/P(F/S)= 10/12 SWL H/P/D(F/S/D)= 10/300/12

E BAHAMAS  41046 0850            74 79   40/ 16/ 21 1021.6R
WVE H/P(F/S)= 10/11 SWL H/P/D(F/S/D)=  8/320/11

NE BAHAMAS 41047 0850            67 75  350/ 10/ 12 1024.6R
WVE H/P(F/S)=  7/10 SWL H/P/D(F/S/D)=  7/310/10

120E CANVRL41010 0820            67 72              1024.5F

END




USA.gov is the U.S. government's official web portal to all federal, state and local government web resources and services.